Regional Weather Roundup
Issued by NWS

Home | Current Version | Previous Version | Graphics & Text | Print | Product List | Glossary On
Versions: 1 2 3 4 5 6 7 8 9 10 11 12 13 14 15 16 17 18 19 20 21 22 23 24 25 26 27 28 29 30 31 32 33 34 35 36 37 38 39 40 41 42 43 44 45 46 47 48 49 50
000
ASUS43 KLSX 291007
RWRMO
WEATHER SUMMARY FOR MISSOURI
NATIONAL WEATHER SERVICE SPRINGFIELD MO
500 AM CDT THU JUN 29 2017

NOTE: "FAIR" INDICATES FEW OR NO CLOUDS BELOW 12,000 FEET WITH NO
       SIGNIFICANT WEATHER AND/OR OBSTRUCTIONS TO VISIBILITY.
       CURRENT SKY AND/OR WEATHER CONDITIONS ARE NOT AVAILABLE FOR
       CHILLICOTHE AND FARMINGTON.

MOZ001>031-035>038-043-044-053-054-291100-
...NORTHERN AND WESTERN MISSOURI...

CITY           SKY/WX    TMP DP  RH WIND       PRES   REMARKS
KANSAS CTY INT CLOUDY    69  66  90 E14       29.85S
KANSAS C DTWN  CLOUDY    73  65  75 E14       29.84R
LEE`S SUMMIT   CLOUDY    74  68  81 E9        29.87S
ST JOSEPH      RAIN      70  69  97 SE3       29.84R FOG
CHILLICOTHE      N/A     67  65  93 SE5       29.88R

$$
MOZ066>068-077>081-088>096-101>105-291100-
...SOUTHWEST MISSOURI...

CITY           SKY/WX    TMP DP  RH WIND       PRES   REMARKS
SPRINGFIELD    CLOUDY    72  67  84 SE12      29.91R
JOPLIN         CLEAR     74  68  81 S9        29.86R
BRANSON          N/A     68  66  94 SE8       29.94S

$$
MOZ032>034-039>042-045>050-055>058-069>072-291100-
...CENTRAL MISSOURI...

CITY           SKY/WX    TMP DP  RH WIND       PRES   REMARKS
COLUMBIA       LGT RAIN  68  63  84 NE10      29.97R
JEFFERSON CITY CLOUDY    75  59  57 NE12      29.94S
ROLLA          PTCLDY    72  65  78 S10       29.95S
SEDALIA        CLOUDY    73  66  78 E9        29.93R
WHITEMAN AFB   MOCLDY    75  70  85 SE7       29.89R
WARRENSBURG    CLOUDY    72  64  78 E8        29.89S
OSAGE BEACH    CLOUDY    73  67  81 SE5       29.95R

$$
MOZ051-052-059>065-291100-
...EAST CENTRAL MISSOURI...

CITY           SKY/WX    TMP DP  RH WIND       PRES   REMARKS
ST LOUIS INTL  CLOUDY    78  64  61 SW9       29.95F
SPIRIT OF STL  CLOUDY    75  67  76 W8        29.95S
ST CHARLES     MOCLDY    74  68  81 SW13      29.92S

$$
MOZ072>076-082>087-097>100-106>115-291100-
...SOUTH CENTRAL AND SOUTHEAST MISSOURI...

CITY           SKY/WX    TMP DP  RH WIND       PRES   REMARKS
CAPE GIRARDEAU CLEAR     70  64  81 S5        29.98R
FARMINGTON     PTCLDY    68  65  90 S6        29.99S
POPLAR BLUFF   CLEAR     68  67  96 CALM      29.98R FOG
WEST PLAINS    PTCLDY    71  64  78 CALM      29.98R

$$



USA.gov is the U.S. government's official web portal to all federal, state and local government web resources and services.